STARLINK-35826, 66375

Orbit data source: Space-Track

STARLINK-35826, 66375 is a payload satellite owned by SpaceX/Seattle (US) in LEO that was launched on Thu, 06 Nov 2025 UTC via an FALCON 9 launch vehicle from the Air Force Western Test Range (AFWTR). Payload-class satellites include a variety of spacecraft equipped with specific instruments for various scientific and technological missions. These include communications satellites like Starlink; space stations such as the ISS; scientific satellites like the Hubble; Earth observation satellites from companies like Planet Labs, Umbra, and HawkEye 360; GPS; miniature CubeSats for education and research; and military/defense satellites.

Loading next visibility...
Identifier
66375, 2025-254AD
Orbit
LEO
Country
Flag of USUS
Related business
Manufacturer
SpaceX/Seattle
Mission
Operational Commercial Communications
Bus & Motor
STARLINK V2MO, Unknown motor
Mass
575 kg wet, ~530 kg dry
Launch date (UTC)
2025-11-06 (7 months ago)
Launch vehicle
FALCON 9
Launch site
Air Force Western Test Range (AFWTR)
Object type
Payload
Rocket body
Debris
Shape & HBR
Box + 2 Pan, 17.7 m
Radar Cross Section
36.964 m², Large (>1 m²)

Expand to show TLE details & history
Last TLE update: 1 day ago

TLE from 1 day ago
0 STARLINK-35826
1 66375U 25254AD  26170.82762827  .00007658  00000-0  27049-3 0  9994
2 66375  53.1596 115.1325 0001832  81.9951 278.1257 15.30190668 34652
Epoch: 2026-06-19T19:51Z
TLE epoch observation values (Epoch: 2026-06-19T19:51:47.082Z)
Latitude
-0.00007°
Longitude
-90.86474°
Altitude
475.965 km
Speed
7.629 km/s
True Right ascension
07h 40m 31s
True Declination
0° 00' 00"
Sunlit
Object was in daylight at epoch
Visualization orbit readout
Latitude
Unknown
Longitude
Unknown
Altitude
Unknown
Speed
Unknown
Apparent Right ascension
Unknown
Apparent Declination
Unknown
Sunlit
N/A
Visualization observer readout
Local Sidereal Time
07:15:44
Azimuth
Unknown
Elevation
Unknown
Doppler factor
Unknown
Orbital elements
Apogee altitude
476.755 km
Perigee altitude
474.244 km
Semi-major axis
6,853.636 km
Eccentricity
0.00018
Inclination
53.1596°
RAAN
115.1325°
Arg. of periapsis
81.9951°
True anomaly
278.10492°
Mean anomaly
278.1257°
Eccentric anomaly
278.11531°
Mean motion
3.82527 °/min
Orbital period
94.11 mins
BSTAR
0.00027049
Loading maneuver chart data...
Computing Atmospheric mass density...
Loading historical data...
Loading historical data...
Loading historical data...
Loading historical data...
Loading historical data...
Loading historical data...
Loading historical data...

Documentation

Showing up to 5 results
|